Grand Forks Air Force Base, ND

4:39 PM CDT on September 30, 2016 (GMT -0500)
Grand Forks Air Force Base

Weather History for KRDR - May, 2014

Change the Weather History Date:

Sunday, May 18, 2014

  Actual Average Record
Temperature  
Mean Temperature 60 °F -  
Max Temperature 73 °F 63 °F 87 °F (2012)
Min Temperature 47 °F 40 °F 28 °F (2002)
Degree Days  
Heating Degree Days 5    
Growing Degree Days 10 (Base 50)    
Moisture  
Dew Point 41 °F    
Average Humidity 52    
Maximum Humidity 77    
Minimum Humidity 24    
Precipitation  
Precipitation 0.00 in - - ()
Sea Level Pressure  
Sea Level Pressure 29.90 in    
Wind  
Wind Speed 5 mph (South)    
Max Wind Speed 13 mph    
Max Gust Speed 17 mph    
Visibility 10 miles    
Events      
Averages and records for this station are not official NWS values.
T = Trace of Precipitation, MM = Missing Value Source: NWS Daily Summary

Daily Weather History Graph

Daily Weather History Graph

Search for Another Location

Airport or City:

Trip Planner

Search our weather history database for the weather conditions in past years. The results will help you decide how hot, cold, wet, or windy it might be!

Date:

Astronomy

May. 18, 2014 Rise Set
Actual Time 5:47 AM CDT 9:05 PM CDT
Civil Twilight 5:09 AM CDT 9:43 PM CDT
Nautical Twilight 4:20 AM CDT 10:32 PM CDT
Astronomical Twilight 3:17 AM CDT 11:36 PM CDT
Moon 12:03 AM CDT (5/18) 9:41 AM CDT (5/18)
Length of Visible Light 16h 33m
Length of Day
15h 18m
Waning Gibbous, 81% of the Moon is Illuminated
May 18
Waning Gibbous
May 21
Last Quarter
May 28
New
Jun 5
First Quarter
Jun 12
Full

Hourly Weather History & Observations

Time (CDT) Temp. Dew Point Humidity Pressure Visibility Wind Dir Wind Speed Gust Speed Precip Events Conditions
12:58 AM 52.7 °F 41.4 °F 65% 29.92 in 10.0 mi SW 4.6 mph - N/A   Scattered Clouds
1:58 AM 52.2 °F 39.0 °F 61% 29.91 in 10.0 mi SW 4.6 mph - N/A   Scattered Clouds
2:58 AM 52.2 °F 38.3 °F 59% 29.91 in 10.0 mi Calm Calm - N/A   Overcast
3:58 AM 52.0 °F 41.4 °F 67% 29.92 in 10.0 mi NNW 2.3 mph - N/A   Mostly Cloudy
4:58 AM 49.5 °F 42.4 °F 77% 29.92 in 10.0 mi North 5.8 mph - N/A   Overcast
5:58 AM 48.2 °F 41.0 °F 76% 29.93 in 10.0 mi North 5.8 mph - N/A   Overcast
6:58 AM 47.7 °F 40.5 °F 76% 29.94 in 10.0 mi NW 4.6 mph - N/A   Mostly Cloudy
7:58 AM 48.4 °F 39.0 °F 70% 29.96 in 10.0 mi NW 4.6 mph - N/A   Scattered Clouds
8:58 AM 51.4 °F 37.9 °F 60% 29.96 in 10.0 mi NW 4.6 mph - N/A   Clear
9:58 AM 56.5 °F 39.9 °F 54% 29.96 in 10.0 mi Variable 3.5 mph - N/A   Clear
10:58 AM 60.1 °F 41.5 °F 50% 29.96 in 10.0 mi Variable 2.3 mph - N/A   Clear
11:58 AM 64.2 °F 42.3 °F 45% 29.94 in 10.0 mi Variable 3.5 mph - N/A   Clear
12:58 PM 68.5 °F 40.8 °F 36% 29.92 in 10.0 mi Variable 5.8 mph - N/A   Clear
1:58 PM 71.8 °F 36.5 °F 28% 29.89 in 10.0 mi South 11.5 mph - N/A   Clear
2:58 PM 70.7 °F 37.6 °F 30% 29.89 in 10.0 mi SE 8.1 mph 17.3 mph N/A   Partly Cloudy
3:58 PM 73.2 °F 34.2 °F 24% 29.87 in 10.0 mi South 12.7 mph 17.3 mph N/A   Partly Cloudy
4:58 PM 72.7 °F 35.8 °F 26% 29.86 in 10.0 mi SSE 10.4 mph - N/A   Partly Cloudy
5:58 PM 72.0 °F 38.8 °F 30% 29.85 in 10.0 mi South 11.5 mph - N/A   Partly Cloudy
6:58 PM 70.7 °F 41.2 °F 34% 29.85 in 10.0 mi SE 10.4 mph - N/A   Clear
7:58 PM 68.4 °F 41.2 °F 37% 29.84 in 10.0 mi SSE 6.9 mph - N/A   Scattered Clouds
8:58 PM 65.7 °F 45.1 °F 47% 29.83 in 10.0 mi SE 5.8 mph - N/A   Mostly Cloudy
9:58 PM 63.1 °F 46.6 °F 55% 29.85 in 10.0 mi South 8.1 mph - N/A   Overcast
10:58 PM 62.1 °F 51.4 °F 68% 29.84 in 10.0 mi SSE 9.2 mph - N/A   Overcast
11:58 PM 61.2 °F 51.1 °F 69% 29.83 in 10.0 mi SE 8.1 mph - N/A   Overcast